K6OUA-11 Weather Reports


time (UTC)temp
C
wind
direction
speed
KPH
gust
KPH
rain 1hr
cm
rain 24hr
cm
rain mn
cm
humidity
%
barometer
mb
20260905175221 28 137 4.8 12.9 0.00 0.00 0.00 24
20260905175020 28 35 0.0 12.9 0.00 0.00 0.00 24
20260905174817 28 26 1.6 12.9 0.00 0.00 0.00 24
20260905174413 28 112 3.2 12.9 0.00 0.00 0.00 23
20260905174211 28 104 1.6 8.0 0.00 0.00 0.00 24
20260905173808 28 92 8.0 8.0 0.00 0.00 0.00 25
20260905173607 28 171 3.2 9.7 0.00 0.00 0.00 24
20260905173405 28 171 3.2 9.7 0.00 0.00 0.00 25
20260905173203 28 199 0.0 11.3 0.00 0.00 0.00 24
20260905172959 27 156 0.0 11.3 0.00 0.00 0.00 25
20260905172757 27 129 8.0 11.3 0.00 0.00 0.00 26
20260905172555 27 66 0.0 9.7 0.00 0.00 0.00 26
20260905172353 27 165 1.6 9.7 0.00 0.00 0.00 27
20260905172151 27 126 0.0 9.7 0.00 0.00 0.00 28
20260905171949 27 158 0.0 9.7 0.00 0.00 0.00 28
20260905171747 27 210 1.6 9.7 0.00 0.00 0.00 27
20260905171545 27 219 8.0 8.0 0.00 0.00 0.00 27
20260905171343 27 135 0.0 8.0 0.00 0.00 0.00 30
20260905171141 27 135 0.0 4.8 0.00 0.00 0.00 28
20260905170939 27 175 1.6 4.8 0.00 0.00 0.00 28
20260905170738 26 133 0.0 6.4 0.00 0.00 0.00 33
20260905170536 26 133 0.0 6.4 0.00 0.00 0.00 33
20260905170334 26 139 4.8 6.4 0.00 0.00 0.00 33
20260905170132 26 198 3.2 4.8 0.00 0.00 0.00 34
20260905165930 26 37 0.0 4.8 0.00 0.00 0.00 36
20260905165728 25 37 0.0 1.6 0.00 0.00 0.00 40
20260905165526 25 37 0.0 1.6 0.00 0.00 0.00 41
20260905165324 25 8 0.0 1.6 0.00 0.00 0.00 43
20260905165122 24 196 0.0 0.0 0.00 0.00 0.00 46
20260905164920 24 281 0.0 0.0 0.00 0.00 0.00 48
20260905164718 23 281 0.0 8.0 0.00 0.00 0.00 49
20260905164516 23 281 0.0 8.0 0.00 0.00 0.00 50
20260905164314 23 281 0.0 8.0 0.00 0.00 0.00 50
20260905164112 23 239 0.0 8.0 0.00 0.00 0.00 52
20260905163910 23 306 1.6 8.0 0.00 0.00 0.00 52
20260905163710 22 250 1.6 9.7 0.00 0.00 0.00 54
20260905163506 22 285 4.8 9.7 0.00 0.00 0.00 53
20260905163304 22 285 1.6 9.7 0.00 0.00 0.00 54
20260905163102 22 295 3.2 11.3 0.00 0.00 0.00 54
20260905162900 22 313 4.8 11.3 0.00 0.00 0.00 56
20260905162658 22 291 4.8 8.0 0.00 0.00 0.00 56
20260905162456 22 243 0.0 8.0 0.00 0.00 0.00 56
20260905162254 22 278 6.4 8.0 0.00 0.00 0.00 55
20260905162052 22 275 4.8 3.2 0.00 0.00 0.00 59
20260905161850 21 255 0.0 3.2 0.00 0.00 0.00 60
20260905161648 21 255 0.0 4.8 0.00 0.00 0.00 63
20260905161446 21 255 0.0 4.8 0.00 0.00 0.00 64
20260905161244 21 261 3.2 4.8 0.00 0.00 0.00 65
20260905161042 21 253 0.0 6.4 0.00 0.00 0.00 66
20260905160840 21 284 3.2 6.4 0.00 0.00 0.00 66
20260905160638 20 303 0.0 6.4 0.00 0.00 0.00 68
20260905160436 20 303 1.6 6.4 0.00 0.00 0.00 67
20260905160235 20 274 6.4 6.4 0.00 0.00 0.00 68
20260905160033 20 264 0.0 6.4 0.00 0.00 0.00 69
20260905155831 20 296 1.6 6.4 0.00 0.00 0.00 69
20260905155629 20 272 3.2 1.6 0.00 0.00 0.00 69
20260905155427 20 278 3.2 1.6 0.00 0.00 0.00 70
20260905155225 20 237 0.0 3.2 0.00 0.00 0.00 70
20260905155023 20 284 0.0 3.2 0.00 0.00 0.00 70
20260905154821 20 284 0.0 3.2 0.00 0.00 0.00 71
20260905154619 20 284 0.0 3.2 0.00 0.00 0.00 71
20260905154417 20 261 0.0 3.2 0.00 0.00 0.00 71
20260905153812 20 271 0.0 0.0 0.00 0.00 0.00 71
20260905153610 20 271 0.0 0.0 0.00 0.00 0.00 71
20260905153408 20 271 0.0 0.0 0.00 0.00 0.00 71
20260905153004 20 271 0.0 0.0 0.00 0.00 0.00 70
20260905152802 20 52 0.0 0.0 0.00 0.00 0.00 70
20260905152600 20 52 0.0 0.0 0.00 0.00 0.00 70
20260905152358 20 52 0.0 0.0 0.00 0.00 0.00 70
20260905152158 20 52 0.0 0.0 0.00 0.00 0.00 70
20260905151954 20 52 0.0 0.0 0.00 0.00 0.00 71
20260905151753 19 52 0.0 0.0 0.00 0.00 0.00 71
20260905151551 19 52 0.0 0.0 0.00 0.00 0.00 72
20260905151349 18 52 0.0 0.0 0.00 0.00 0.00 73
20260905151147 18 52 0.0 0.0 0.00 0.00 0.00 73
20260905150945 18 52 0.0 0.0 0.00 0.00 0.00 74
20260905150743 18 52 0.0 3.2 0.00 0.00 0.00 74
20260905150541 18 52 0.0 3.2 0.00 0.00 0.00 75
20260905150339 18 52 0.0 3.2 0.00 0.00 0.00 75
20260905150137 17 92 1.6 4.8 0.00 0.00 0.00 75
20260905145935 17 80 3.2 4.8 0.00 0.00 0.00 75
20260905145532 17 118 3.2 4.8 0.00 0.00 0.00 76
20260905145330 17 120 3.2 4.8 0.00 0.00 0.00 76
20260905145128 17 129 1.6 4.8 0.00 0.00 0.00 76
20260905144926 17 106 3.2 4.8 0.00 0.00 0.00 76
20260905144522 17 87 0.0 0.0 0.00 0.00 0.00 78
20260905144320 17 87 0.0 0.0 0.00 0.00 0.00 78
20260905144118 17 87 0.0 0.0 0.00 0.00 0.00 77
20260905143916 16 87 0.0 0.0 0.00 0.00 0.00 78
20260905143714 16 87 0.0 0.0 0.00 0.00 0.00 79
20260905143513 16 87 0.0 0.0 0.00 0.00 0.00 79
20260905143311 16 87 0.0 0.0 0.00 0.00 0.00 81
20260905143109 16 87 0.0 0.0 0.00 0.00 0.00 81
20260905142907 16 87 0.0 0.0 0.00 0.00 0.00 82
20260905142705 15 87 0.0 0.0 0.00 0.00 0.00 83
20260905142503 15 87 0.0 0.0 0.00 0.00 0.00 83
20260905142301 15 87 0.0 0.0 0.00 0.00 0.00 84
20260905142059 15 87 0.0 0.0 0.00 0.00 0.00 84
20260905141857 15 87 0.0 0.0 0.00 0.00 0.00 84
20260905141655 15 87 0.0 0.0 0.00 0.00 0.00 85
20260905141455 15 87 0.0 0.0 0.00 0.00 0.00 85
20260905141252 15 87 0.0 0.0 0.00 0.00 0.00 86
20260905141050 15 87 0.0 0.0 0.00 0.00 0.00 87
20260905140848 15 87 0.0 0.0 0.00 0.00 0.00 87
20260905140646 15 87 0.0 0.0 0.00 0.00 0.00 87
20260905140446 15 87 0.0 0.0 0.00 0.00 0.00 87
20260905140242 15 87 0.0 0.0 0.00 0.00 0.00 87
20260905140040 15 87 0.0 0.0 0.00 0.00 0.00 87
20260905135838 15 87 0.0 0.0 0.00 0.00 0.00 87
20260905135434 14 87 0.0 0.0 0.00 0.00 0.00 88
20260905135233 14 87 0.0 0.0 0.00 0.00 0.00 89
20260905135031 14 87 0.0 0.0 0.00 0.00 0.00 89
20260905134831 14 87 0.0 0.0 0.00 0.00 0.00 89
20260905134627 14 87 0.0 0.0 0.00 0.00 0.00 89
20260905134425 14 87 0.0 0.0 0.00 0.00 0.00 89
20260905134223 14 87 0.0 0.0 0.00 0.00 0.00 88
20260905134021 14 87 0.0 0.0 0.00 0.00 0.00 88
20260905133617 14 87 0.0 0.0 0.00 0.00 0.00 90
20260905133415 14 87 0.0 0.0 0.00 0.00 0.00 90
20260905133214 15 87 0.0 0.0 0.00 0.00 0.00 90
20260905133014 14 87 0.0 0.0 0.00 0.00 0.00 90
20260905132810 15 87 0.0 0.0 0.00 0.00 0.00 90
20260905132609 14 87 0.0 0.0 0.00 0.00 0.00 91
20260905132406 14 87 0.0 0.0 0.00 0.00 0.00 91
20260905132204 15 87 0.0 0.0 0.00 0.00 0.00 91
20260905132004 14 87 0.0 0.0 0.00 0.00 0.00 91
20260905131800 14 87 0.0 0.0 0.00 0.00 0.00 91
20260905131558 14 87 0.0 0.0 0.00 0.00 0.00 91
20260905131356 14 87 0.0 0.0 0.00 0.00 0.00 91
20260905131154 14 87 0.0 0.0 0.00 0.00 0.00 91
20260905130953 14 87 0.0 0.0 0.00 0.00 0.00 91
20260905130751 15 87 0.0 0.0 0.00 0.00 0.00 91
20260905130549 14 87 0.0 0.0 0.00 0.00 0.00 91
20260905130347 15 87 0.0 0.0 0.00 0.00 0.00 91
20260905130145 15 87 0.0 0.0 0.00 0.00 0.00 91
20260905125943 15 87 0.0 0.0 0.00 0.00 0.00 91
20260905125741 15 87 0.0 0.0 0.00 0.00 0.00 91
20260905125539 15 87 0.0 0.0 0.00 0.00 0.00 91
20260905125337 15 87 0.0 0.0 0.00 0.00 0.00 91
20260905124940 15 87 0.0 0.0 0.00 0.00 0.00 91
20260905124933 15 87 0.0 0.0 0.00 0.00 0.00 91
20260905124732 15 87 0.0 0.0 0.00 0.00 0.00 91
20260905124530 15 87 0.0 0.0 0.00 0.00 0.00 91
20260905124126 15 87 0.0 0.0 0.00 0.00 0.00 91
20260905123924 15 87 0.0 0.0 0.00 0.00 0.00 91
20260905123722 15 87 0.0 0.0 0.00 0.00 0.00 91
20260905123520 15 87 0.0 0.0 0.00 0.00 0.00 91
20260905123318 15 87 0.0 0.0 0.00 0.00 0.00 91
20260905123116 15 87 0.0 0.0 0.00 0.00 0.00 91
20260905122915 15 87 0.0 0.0 0.00 0.00 0.00 91
20260905122713 15 87 0.0 0.0 0.00 0.00 0.00 91
20260905122511 15 87 0.0 0.0 0.00 0.00 0.00 91
20260905122309 15 87 0.0 0.0 0.00 0.00 0.00 91
20260905122107 15 87 0.0 0.0 0.00 0.00 0.00 91
20260905121905 15 87 0.0 0.0 0.00 0.00 0.00 91
20260905121503 15 87 0.0 0.0 0.00 0.00 0.00 91
20260905121259 15 87 0.0 0.0 0.00 0.00 0.00 91
20260905121057 15 87 0.0 0.0 0.00 0.00 0.00 91
20260905120855 15 87 0.0 0.0 0.00 0.00 0.00 91
20260905120653 15 87 0.0 0.0 0.00 0.00 0.00 91
20260905120454 15 87 0.0 0.0 0.00 0.00 0.00 91
20260905120250 15 87 0.0 0.0 0.00 0.00 0.00 91
20260905120048 15 87 0.0 0.0 0.00 0.00 0.00 91
20260905115846 15 87 0.0 0.0 0.00 0.00 0.00 91
20260905115644 15 87 0.0 0.0 0.00 0.00 0.00 91
20260905115442 15 87 0.0 0.0 0.00 0.00 0.00 91
20260905115240 15 87 0.0 0.0 0.00 0.00 0.00 91
20260905114836 15 87 0.0 0.0 0.00 0.00 0.00 91
20260905114634 15 87 0.0 0.0 0.00 0.00 0.00 91
20260905114433 15 87 0.0 0.0 0.00 0.00 0.00 91
20260905114231 15 87 0.0 0.0 0.00 0.00 0.00 91
20260905114029 15 87 0.0 0.0 0.00 0.00 0.00 91
20260905113827 15 87 0.0 0.0 0.00 0.00 0.00 91
20260905113625 15 87 0.0 0.0 0.00 0.00 0.00 91
20260905113424 15 87 0.0 0.0 0.00 0.00 0.00 91
20260905113221 15 87 0.0 0.0 0.00 0.00 0.00 91
20260905112817 15 87 0.0 0.0 0.00 0.00 0.00 91
20260905112618 15 87 0.0 0.0 0.00 0.00 0.00 91
20260905112413 15 87 0.0 0.0 0.00 0.00 0.00 91
20260905112212 15 87 0.0 0.0 0.00 0.00 0.00 91
20260905112010 15 87 0.0 0.0 0.00 0.00 0.00 91
20260905111808 15 87 0.0 0.0 0.00 0.00 0.00 91
20260905111606 15 87 0.0 0.0 0.00 0.00 0.00 91
20260905111404 15 87 0.0 0.0 0.00 0.00 0.00 91
20260905111202 15 87 0.0 0.0 0.00 0.00 0.00 91
20260905111000 15 87 0.0 0.0 0.00 0.00 0.00 91
20260905110758 15 87 0.0 0.0 0.00 0.00 0.00 91
20260905110556 15 87 0.0 0.0 0.00 0.00 0.00 91
20260905110354 15 87 0.0 0.0 0.00 0.00 0.00 91
20260905110152 15 87 0.0 0.0 0.00 0.00 0.00 91
20260905105951 15 87 0.0 0.0 0.00 0.00 0.00 91
20260905105749 15 87 0.0 0.0 0.00 0.00 0.00 91
20260905105547 15 87 0.0 0.0 0.00 0.00 0.00 91
20260905105345 15 87 0.0 0.0 0.00 0.00 0.00 91
20260905105145 15 87 0.0 0.0 0.00 0.00 0.00 91
20260905104941 15 87 0.0 0.0 0.00 0.00 0.00 91
20260905104739 15 87 0.0 0.0 0.00 0.00 0.00 91
20260905104539 15 87 0.0 0.0 0.00 0.00 0.00 91
20260905104335 15 87 0.0 0.0 0.00 0.00 0.00 91
20260905104133 15 87 0.0 0.0 0.00 0.00 0.00 91
20260905103932 15 87 0.0 0.0 0.00 0.00 0.00 91
20260905103730 15 87 0.0 0.0 0.00 0.00 0.00 91
20260905103528 15 87 0.0 0.0 0.00 0.00 0.00 91
20260905103326 15 87 0.0 0.0 0.00 0.00 0.00 91
20260905103124 15 87 0.0 0.0 0.00 0.00 0.00 91
20260905102922 15 87 0.0 0.0 0.00 0.00 0.00 91
20260905102720 15 87 0.0 0.0 0.00 0.00 0.00 91
20260905102518 15 87 0.0 0.0 0.00 0.00 0.00 91
20260905102316 15 87 0.0 0.0 0.00 0.00 0.00 91
20260905102114 15 87 0.0 0.0 0.00 0.00 0.00 91
20260905101912 15 87 0.0 0.0 0.00 0.00 0.00 91
20260905101711 15 87 0.0 0.0 0.00 0.00 0.00 91
20260905101509 15 87 0.0 0.0 0.00 0.00 0.00 92
20260905101307 15 87 0.0 0.0 0.00 0.00 0.00 92
20260905101105 15 87 0.0 0.0 0.00 0.00 0.00 92
20260905100903 15 87 0.0 0.0 0.00 0.00 0.00 92
20260905100701 15 87 0.0 0.0 0.00 0.00 0.00 92
20260905100459 15 87 0.0 0.0 0.00 0.00 0.00 92
20260905100257 15 87 0.0 0.0 0.00 0.00 0.00 91
20260905100055 15 87 0.0 0.0 0.00 0.00 0.00 92
20260905095853 15 87 0.0 0.0 0.00 0.00 0.00 92
20260905095651 15 87 0.0 0.0 0.00 0.00 0.00 92
20260905095450 15 87 0.0 0.0 0.00 0.00 0.00 92
20260905095248 15 87 0.0 0.0 0.00 0.00 0.00 92
20260905095046 15 87 0.0 0.0 0.00 0.00 0.00 92
20260905094844 15 87 0.0 0.0 0.00 0.00 0.00 92
20260905094642 15 87 0.0 0.0 0.00 0.00 0.00 92
20260905094440 15 87 0.0 0.0 0.00 0.00 0.00 92
20260905094238 15 87 0.0 0.0 0.00 0.00 0.00 92
20260905094036 15 87 0.0 0.0 0.00 0.00 0.00 92
20260905093834 15 87 0.0 0.0 0.00 0.00 0.00 92
20260905093632 15 87 0.0 1.6 0.00 0.00 0.00 92
20260905093431 15 87 0.0 1.6 0.00 0.00 0.00 91
20260905093229 15 87 0.0 4.8 0.00 0.00 0.00 91
20260905093027 15 87 0.0 4.8 0.00 0.00 0.00 91
20260905092825 15 67 0.0 4.8 0.00 0.00 0.00 92
20260905092623 15 82 0.0 3.2 0.00 0.00 0.00 92
20260905092421 15 82 0.0 3.2 0.00 0.00 0.00 92
20260905092219 15 95 1.6 4.8 0.00 0.00 0.00 91
20260905092017 15 80 0.0 4.8 0.00 0.00 0.00 91
20260905091815 15 80 0.0 4.8 0.00 0.00 0.00 90
20260905091613 15 80 0.0 0.0 0.00 0.00 0.00 90
20260905091248 15 59 0.0 0.0 0.00 0.00 0.00 90
20260905091210 15 59 0.0 0.0 0.00 0.00 0.00 90
20260905091008 16 59 0.0 0.0 0.00 0.00 0.00 90
20260905090806 16 59 0.0 0.0 0.00 0.00 0.00 91
20260905090604 16 59 0.0 0.0 0.00 0.00 0.00 91
20260905090402 16 59 0.0 0.0 0.00 0.00 0.00 91
20260905090200 16 59 0.0 0.0 0.00 0.00 0.00 91
20260905085958 16 59 0.0 0.0 0.00 0.00 0.00 91
20260905085756 16 59 0.0 0.0 0.00 0.00 0.00 91
20260905085554 16 59 0.0 0.0 0.00 0.00 0.00 91
20260905085353 16 59 0.0 0.0 0.00 0.00 0.00 91
20260905085151 16 59 0.0 0.0 0.00 0.00 0.00 91
20260905084949 15 59 0.0 0.0 0.00 0.00 0.00 91
20260905084747 15 59 0.0 0.0 0.00 0.00 0.00 91
20260905084343 15 59 0.0 0.0 0.00 0.00 0.00 91
20260905084141 15 59 0.0 0.0 0.00 0.00 0.00 90
20260905083939 15 59 0.0 0.0 0.00 0.00 0.00 90
20260905083737 15 59 0.0 3.2 0.00 0.00 0.00 90
20260905083536 15 59 0.0 3.2 0.00 0.00 0.00 90
20260905083333 15 59 0.0 3.2 0.00 0.00 0.00 90
20260905083132 15 109 1.6 0.0 0.00 0.00 0.00 89
20260905082728 16 71 0.0 0.0 0.00 0.00 0.00 90
20260905082324 16 71 0.0 0.0 0.00 0.00 0.00 90
20260905082122 15 71 0.0 1.6 0.00 0.00 0.00 90
20260905081920 15 71 0.0 1.6 0.00 0.00 0.00 90
20260905081718 15 71 0.0 1.6 0.00 0.00 0.00 89
20260905081516 16 78 0.0 1.6 0.00 0.00 0.00 89
20260905081314 16 109 1.6 1.6 0.00 0.00 0.00 89
20260905081113 16 88 0.0 0.0 0.00 0.00 0.00 89
20260905080911 16 267 0.0 0.0 0.00 0.00 0.00 89
20260905080709 16 267 0.0 0.0 0.00 0.00 0.00 89
20260905080344 16 267 0.0 0.0 0.00 0.00 0.00 89
20260905080305 16 267 0.0 0.0 0.00 0.00 0.00 89
20260905075901 16 267 0.0 0.0 0.00 0.00 0.00 89
20260905075659 16 267 0.0 0.0 0.00 0.00 0.00 89
20260905075457 16 267 0.0 0.0 0.00 0.00 0.00 89
20260905075255 16 267 0.0 0.0 0.00 0.00 0.00 89
20260905075056 16 267 0.0 0.0 0.00 0.00 0.00 89
20260905074852 16 267 0.0 0.0 0.00 0.00 0.00 89
20260905074651 16 267 0.0 0.0 0.00 0.00 0.00 89
20260905074448 16 267 0.0 0.0 0.00 0.00 0.00 88
20260905074248 16 267 0.0 0.0 0.00 0.00 0.00 88
20260905074044 16 267 0.0 0.0 0.00 0.00 0.00 88
20260905073642 16 267 0.0 0.0 0.00 0.00 0.00 88
20260905073440 16 267 0.0 0.0 0.00 0.00 0.00 88
20260905073236 16 267 0.0 0.0 0.00 0.00 0.00 88
20260905073035 16 267 0.0 0.0 0.00 0.00 0.00 88
20260905072833 16 267 0.0 0.0 0.00 0.00 0.00 88
20260905072631 16 267 0.0 0.0 0.00 0.00 0.00 88
20260905072429 16 267 0.0 0.0 0.00 0.00 0.00 88
20260905072227 16 267 0.0 0.0 0.00 0.00 0.00 88
20260905072025 16 267 0.0 0.0 0.00 0.00 0.00 88
20260905071823 16 267 0.0 0.0 0.00 0.00 0.00 88
20260905071621 16 267 0.0 0.0 0.00 0.00 0.00 88
20260905071217 16 267 0.0 0.0 0.00 0.00 0.00 87
20260905071015 16 267 0.0 0.0 0.00 0.00 0.00 87
20260905070814 16 267 0.0 0.0 0.00 0.00 0.00 87
20260905070612 16 267 0.0 0.0 0.00 0.00 0.00 87
20260905070410 16 267 0.0 0.0 0.00 0.00 0.00 87
20260905070242 16 267 0.0 0.0 0.00 0.00 0.00 87
20260905070210 16 267 0.0 0.0 0.00 0.00 0.00 87
20260905065804 16 267 0.0 0.0 0.00 0.00 0.00 87
20260905065602 16 267 0.0 0.0 0.00 0.00 0.00 87
20260905065400 16 267 0.0 0.0 0.00 0.00 0.00 87
20260905065158 16 267 0.0 0.0 0.00 0.00 0.00 87
20260905064755 16 267 0.0 0.0 0.00 0.00 0.00 87
20260905064553 16 267 0.0 0.0 0.00 0.00 0.00 86
20260905064351 16 267 0.0 0.0 0.00 0.00 0.00 86
20260905064151 16 267 0.0 0.0 0.00 0.00 0.00 86
20260905063947 16 267 0.0 0.0 0.00 0.00 0.00 86
20260905063745 17 267 0.0 0.0 0.00 0.00 0.00 86
20260905063543 17 267 0.0 0.0 0.00 0.00 0.00 86
20260905063341 17 267 0.0 0.0 0.00 0.00 0.00 86
20260905063141 17 267 0.0 0.0 0.00 0.00 0.00 86
20260905062937 17 267 0.0 0.0 0.00 0.00 0.00 86
20260905062735 17 267 0.0 0.0 0.00 0.00 0.00 86
20260905062536 17 267 0.0 0.0 0.00 0.00 0.00 86
20260905062333 17 267 0.0 0.0 0.00 0.00 0.00 86
20260905062130 17 267 0.0 0.0 0.00 0.00 0.00 86
20260905061928 17 267 0.0 0.0 0.00 0.00 0.00 85
20260905061726 17 267 0.0 0.0 0.00 0.00 0.00 85
20260905061525 17 267 0.0 0.0 0.00 0.00 0.00 85
20260905061323 17 267 0.0 0.0 0.00 0.00 0.00 85
20260905061120 17 267 0.0 0.0 0.00 0.00 0.00 85
20260905060918 17 267 0.0 0.0 0.00 0.00 0.00 85
20260905060716 17 267 0.0 0.0 0.00 0.00 0.00 85
20260905060516 17 267 0.0 0.0 0.00 0.00 0.00 85
20260905060111 17 267 0.0 0.0 0.00 0.00 0.00 85
20260905055909 17 267 0.0 0.0 0.00 0.00 0.00 85
20260905055505 17 267 0.0 0.0 0.00 0.00 0.00 85
20260905055306 17 267 0.0 0.0 0.00 0.00 0.00 85
20260905054901 17 267 0.0 0.0 0.00 0.00 0.00 85
20260905054657 17 267 0.0 0.0 0.00 0.00 0.00 85
20260905054457 17 267 0.0 0.0 0.00 0.00 0.00 85
20260905054253 17 267 0.0 0.0 0.00 0.00 0.00 85
20260905054052 17 267 0.0 0.0 0.00 0.00 0.00 85
20260905053850 17 267 0.0 0.0 0.00 0.00 0.00 85
20260905053244 17 267 0.0 0.0 0.00 0.00 0.00 85
20260905053042 18 267 0.0 0.0 0.00 0.00 0.00 85
20260905052840 18 267 0.0 0.0 0.00 0.00 0.00 85
20260905052638 18 267 0.0 0.0 0.00 0.00 0.00 85
20260905052436 18 267 0.0 0.0 0.00 0.00 0.00 84
20260905052234 18 267 0.0 0.0 0.00 0.00 0.00 84
20260905052034 18 267 0.0 0.0 0.00 0.00 0.00 84
20260905051831 18 267 0.0 0.0 0.00 0.00 0.00 84
20260905051630 18 267 0.0 0.0 0.00 0.00 0.00 84
20260905051429 18 267 0.0 0.0 0.00 0.00 0.00 83
20260905051228 18 267 0.0 0.0 0.00 0.00 0.00 83
20260905051023 18 267 0.0 0.0 0.00 0.00 0.00 83
20260905050821 18 267 0.0 0.0 0.00 0.00 0.00 83
20260905050619 18 267 0.0 0.0 0.00 0.00 0.00 83
20260905050417 18 267 0.0 0.0 0.00 0.00 0.00 83
20260905050215 18 267 0.0 0.0 0.00 0.00 0.00 82
20260905050014 18 267 0.0 0.0 0.00 0.00 0.00 82
20260905045610 18 267 0.0 0.0 0.00 0.00 0.00 82
20260905045408 18 267 0.0 0.0 0.00 0.00 0.00 82
20260905045206 18 267 0.0 0.0 0.00 0.00 0.00 82
20260905044600 18 267 0.0 0.0 0.00 0.00 0.00 82
20260905044358 18 267 0.0 0.0 0.00 0.00 0.00 82
20260905044156 18 267 0.0 0.0 0.00 0.00 0.00 82
20260905043954 18 267 0.0 0.0 0.00 0.00 0.00 82
20260905043752 18 267 0.0 0.0 0.00 0.00 0.00 82
20260905043551 18 267 0.0 0.0 0.00 0.00 0.00 82
20260905043349 18 267 0.0 0.0 0.00 0.00 0.00 82
20260905043147 19 267 0.0 0.0 0.00 0.00 0.00 82
20260905042945 18 267 0.0 0.0 0.00 0.00 0.00 82
20260905042743 19 267 0.0 0.0 0.00 0.00 0.00 82
20260905042541 19 267 0.0 0.0 0.00 0.00 0.00 82
20260905042339 19 267 0.0 0.0 0.00 0.00 0.00 82
20260905041935 19 267 0.0 0.0 0.00 0.00 0.00 82
20260905041733 19 267 0.0 0.0 0.00 0.00 0.00 81
20260905041330 19 267 0.0 0.0 0.00 0.00 0.00 81
20260905041129 19 267 0.0 0.0 0.00 0.00 0.00 82
20260905040926 19 267 0.0 0.0 0.00 0.00 0.00 82
20260905040725 19 267 0.0 0.0 0.00 0.00 0.00 82
20260905040522 19 267 0.0 0.0 0.00 0.00 0.00 81
20260905040118 20 267 0.0 0.0 0.00 0.00 0.00 81
20260905035916 20 267 0.0 0.0 0.00 0.00 0.00 81
20260905035714 20 267 0.0 0.0 0.00 0.00 0.00 81
20260905035512 20 267 0.0 0.0 0.00 0.00 0.00 81
20260905035311 20 267 0.0 0.0 0.00 0.00 0.00 81
20260905035109 20 267 0.0 0.0 0.00 0.00 0.00 80
20260905034907 20 267 0.0 0.0 0.00 0.00 0.00 80
20260905034705 20 267 0.0 3.2 0.00 0.00 0.00 80
20260905034505 20 267 0.0 3.2 0.00 0.00 0.00 80
20260905034306 20 267 0.0 3.2 0.00 0.00 0.00 80
20260905034301 20 267 0.0 3.2 0.00 0.00 0.00 80
20260905034059 20 267 0.0 3.2 0.00 0.00 0.00 80
20260905033857 20 279 1.6 3.2 0.00 0.00 0.00 80
20260905033655 20 282 1.6 1.6 0.00 0.00 0.00 80
20260905033453 20 260 0.0 1.6 0.00 0.00 0.00 79
20260905033252 20 260 0.0 1.6 0.00 0.00 0.00 79
20260905033050 20 275 0.0 4.8 0.00 0.00 0.00 79
20260905032848 20 275 0.0 4.8 0.00 0.00 0.00 79
20260905032444 20 275 0.0 4.8 0.00 0.00 0.00 79
20260905032242 20 299 1.6 4.8 0.00 0.00 0.00 79
20260905032040 20 292 4.8 4.8 0.00 0.00 0.00 79
20260905031838 20 300 3.2 4.8 0.00 0.00 0.00 78
20260905031636 20 305 3.2 8.0 0.00 0.00 0.00 78
20260905031434 20 289 1.6 8.0 0.00 0.00 0.00 78
20260905031232 20 284 3.2 9.7 0.00 0.00 0.00 78
20260905031031 20 279 4.8 9.7 0.00 0.00 0.00 78
20260905030949 20 281 3.2 9.7 0.00 0.00 0.00 77
20260905030829 20 281 3.2 9.7 0.00 0.00 0.00 77
20260905030627 20 295 4.8 8.0 0.00 0.00 0.00 77
20260905030425 20 295 6.4 8.0 0.00 0.00 0.00 77
20260905030223 20 302 3.2 8.0 0.00 0.00 0.00 77
20260905030021 20 274 6.4 8.0 0.00 0.00 0.00 76
20260905025819 20 288 4.8 8.0 0.00 0.00 0.00 76
20260905025740 20 292 6.4 9.7 0.00 0.00 0.00 75
20260905025617 20 288 4.8 9.7 0.00 0.00 0.00 76
20260905025415 20 292 6.4 9.7 0.00 0.00 0.00 75
20260905025213 20 289 6.4 6.4 0.00 0.00 0.00 75
20260905025011 20 281 4.8 6.4 0.00 0.00 0.00 75
20260905024809 21 289 6.4 6.4 0.00 0.00 0.00 74
20260905024607 21 286 3.2 8.0 0.00 0.00 0.00 74
20260905024405 21 286 6.4 8.0 0.00 0.00 0.00 73
20260905024203 21 295 4.8 8.0 0.00 0.00 0.00 73
20260905023759 21 281 3.2 8.0 0.00 0.00 0.00 72
20260905023557 21 279 3.2 4.8 0.00 0.00 0.00 71
20260905023356 21 278 3.2 4.8 0.00 0.00 0.00 70
20260905023154 21 279 0.0 11.3 0.00 0.00 0.00 70
20260905022952 21 240 1.6 11.3 0.00 0.00 0.00 70
20260905022548 21 272 1.6 12.9 0.00 0.00 0.00 69
20260905022345 21 271 6.4 12.9 0.00 0.00 0.00 69
20260905022143 21 291 3.2 11.3 0.00 0.00 0.00 69
20260905021941 21 271 8.0 11.3 0.00 0.00 0.00 69
20260905021740 21 260 9.7 11.3 0.00 0.00 0.00 68
20260905021538 22 260 4.8 11.3 0.00 0.00 0.00 67
20260905021336 22 286 3.2 11.3 0.00 0.00 0.00 67
20260905021134 22 264 9.7 11.3 0.00 0.00 0.00 67
20260905020932 22 282 6.4 11.3 0.00 0.00 0.00 67
20260905020530 22 295 6.4 12.9 0.00 0.00 0.00 66
20260905020125 22 291 4.8 16.1 0.00 0.00 0.00 65
20260905015923 22 281 8.0 16.1 0.00 0.00 0.00 65
20260905015720 22 258 16.1 14.5 0.00 0.00 0.00 65
20260905015519 22 274 12.9 14.5 0.00 0.00 0.00 65
20260905015316 22 272 11.3 14.5 0.00 0.00 0.00 64
20260905015114 22 262 6.4 16.1 0.00 0.00 0.00 65
20260905014912 22 291 8.0 16.1 0.00 0.00 0.00 65
20260905014710 22 270 8.0 16.1 0.00 0.00 0.00 65
20260905014306 23 265 12.9 16.1 0.00 0.00 0.00 63
20260905014106 23 281 8.0 12.9 0.00 0.00 0.00 63
20260905013904 23 275 11.3 12.9 0.00 0.00 0.00 63
20260905013500 23 281 9.7 17.7 0.00 0.00 0.00 63
20260905013258 23 254 9.7 17.7 0.00 0.00 0.00 62
20260905013056 23 279 17.7 16.1 0.00 0.00 0.00 62
20260905012854 23 258 8.0 16.1 0.00 0.00 0.00 62
20260905012651 23 254 9.7 16.1 0.00 0.00 0.00 62
20260905012451 23 267 14.5 16.1 0.00 0.00 0.00 62
20260905011843 23 268 9.7 14.5 0.00 0.00 0.00 62
20260905011641 23 248 4.8 17.7 0.00 0.00 0.00 62
20260905011035 23 275 11.3 17.7 0.00 0.00 0.00 62
20260905010835 23 216 1.6 17.7 0.00 0.00 0.00 63
20260905010631 23 267 8.0 17.7 0.00 0.00 0.00 63
20260905010429 23 226 8.0 17.7 0.00 0.00 0.00 63
20260905010025 23 250 9.7 16.1 0.00 0.00 0.00 62
20260905005823 23 264 6.4 16.1 0.00 0.00 0.00 62
20260905005623 23 240 6.4 17.7 0.00 0.00 0.00 62
20260905005217 23 272 12.9 17.7 0.00 0.00 0.00 62
20260905005015 23 281 6.4 17.7 0.00 0.00 0.00 62
20260905004813 23 277 4.8 17.7 0.00 0.00 0.00 62
20260905004613 23 274 11.3 22.5 0.00 0.00 0.00 62
20260905004409 23 250 8.0 22.5 0.00 0.00 0.00 62
20260905004207 24 265 16.1 12.9 0.00 0.00 0.00 61
20260905003805 24 292 12.9 12.9 0.00 0.00 0.00 60
20260905003601 24 189 1.6 17.7 0.00 0.00 0.00 60
20260905003401 24 253 4.8 17.7 0.00 0.00 0.00 60
20260905003158 24 284 8.0 24.1 0.00 0.00 0.00 61
20260905002956 24 244 1.6 24.1 0.00 0.00 0.00 60
20260905002754 24 226 4.8 24.1 0.00 0.00 0.00 60
20260905002553 24 255 11.3 19.3 0.00 0.00 0.00 61
20260905002350 24 264 12.9 19.3 0.00 0.00 0.00 60
20260905002148 24 247 11.3 20.9 0.00 0.00 0.00 60
20260905001948 24 268 9.7 20.9 0.00 0.00 0.00 60
20260905001744 24 247 9.7 22.5 0.00 0.00 0.00 60
20260905001542 24 296 6.4 22.5 0.00 0.00 0.00 61
20260905001342 24 246 11.3 22.5 0.00 0.00 0.00 61
20260905001138 24 270 12.9 20.9 0.00 0.00 0.00 60
20260905000937 24 255 9.7 20.9 0.00 0.00 0.00 60
20260905000735 24 270 17.7 22.5 0.00 0.00 0.00 59
20260905000533 25 271 6.4 22.5 0.00 0.00 0.00 58
20260905000332 25 254 8.0 22.5 0.00 0.00 0.00 59
20260905000128 25 244 14.5 22.5 0.00 0.00 0.00 58
20260904235927 25 272 11.3 22.5 0.00 0.00 0.00 59
20260904235724 25 265 6.4 20.9 0.00 0.00 0.00 58
20260904235524 25 258 19.3 20.9 0.00 0.00 0.00 56
20260904235322 25 272 6.4 20.9 0.00 0.00 0.00 58
20260904235118 25 250 20.9 17.7 0.00 0.00 0.00 57
20260904234916 25 302 9.7 17.7 0.00 0.00 0.00 57
20260904234514 25 250 16.1 20.9 0.00 0.00 0.00 57
20260904234312 25 250 1.6 20.9 0.00 0.00 0.00 56
20260904234110 25 261 11.3 20.9 0.00 0.00 0.00 57
20260904233907 25 265 12.9 20.9 0.00 0.00 0.00 57
20260904233505 25 225 12.9 17.7 0.00 0.00 0.00 56
20260904233342 25 271 8.0 17.7 0.00 0.00 0.00 55
20260904233302 25 271 8.0 17.7 0.00 0.00 0.00 55
20260904233100 25 253 11.3 24.1 0.00 0.00 0.00 56
20260904232858 25 161 1.6 24.1 0.00 0.00 0.00 56
20260904232655 25 262 16.1 20.9 0.00 0.00 0.00 55
20260904232454 25 275 6.4 20.9 0.00 0.00 0.00 54
20260904232050 25 270 9.7 20.9 0.00 0.00 0.00 54
20260904231847 25 260 12.9 20.9 0.00 0.00 0.00 51
20260904231645 25 281 6.4 29.0 0.00 0.00 0.00 54
20260904231445 25 260 8.0 29.0 0.00 0.00 0.00 53
20260904231243 25 255 8.0 25.7 0.00 0.00 0.00 54
20260904231041 25 300 12.9 25.7 0.00 0.00 0.00 54
20260904230837 25 255 11.3 25.7 0.00 0.00 0.00 54
20260904230635 25 253 24.1 25.7 0.00 0.00 0.00 54
20260904230435 25 288 8.0 25.7 0.00 0.00 0.00 52
20260904230233 25 255 11.3 24.1 0.00 0.00 0.00 53
20260904230029 25 262 16.1 24.1 0.00 0.00 0.00 54
20260904225829 25 268 19.3 24.1 0.00 0.00 0.00 53
20260904225625 25 239 16.1 25.7 0.00 0.00 0.00 54
20260904225425 25 277 12.9 25.7 0.00 0.00 0.00 53
20260904225021 25 246 12.9 25.7 0.00 0.00 0.00 54
20260904224819 25 265 14.5 25.7 0.00 0.00 0.00 54
20260904224615 25 248 12.9 29.0 0.00 0.00 0.00 53
20260904224415 25 255 17.7 29.0 0.00 0.00 0.00 55
20260904224213 25 265 14.5 30.6 0.00 0.00 0.00 56
20260904224009 25 257 20.9 30.6 0.00 0.00 0.00 57
20260904223809 25 282 16.1 30.6 0.00 0.00 0.00 56
20260904223607 25 253 17.7 29.0 0.00 0.00 0.00 55
20260904223404 25 274 22.5 29.0 0.00 0.00 0.00 56
20260904223204 25 241 17.7 30.6 0.00 0.00 0.00 56
20260904223000 25 254 16.1 30.6 0.00 0.00 0.00 57
20260904222800 25 275 24.1 30.6 0.00 0.00 0.00 57
20260904222556 25 262 29.0 24.1 0.00 0.00 0.00 57
20260904222355 25 296 17.7 24.1 0.00 0.00 0.00 56
20260904222153 25 267 17.7 27.4 0.00 0.00 0.00 54
20260904221952 25 293 6.4 27.4 0.00 0.00 0.00 55
20260904221750 25 260 11.3 27.4 0.00 0.00 0.00 55
20260904221548 25 267 16.1 24.1 0.00 0.00 0.00 56
20260904221346 26 270 16.1 24.1 0.00 0.00 0.00 55
20260904221144 26 253 20.9 27.4 0.00 0.00 0.00 54
20260904220941 26 232 16.1 27.4 0.00 0.00 0.00 55
20260904220740 26 277 19.3 22.5 0.00 0.00 0.00 55
20260904220538 25 244 17.7 22.5 0.00 0.00 0.00 55
20260904220334 26 272 17.7 22.5 0.00 0.00 0.00 55
20260904220132 26 258 17.7 29.0 0.00 0.00 0.00 55
20260904215124 25 262 20.9 25.7 0.00 0.00 0.00 55
20260904214922 26 264 14.5 25.7 0.00 0.00 0.00 55
20260904214719 26 247 16.1 27.4 0.00 0.00 0.00 54
20260904214517 26 268 16.1 27.4 0.00 0.00 0.00 53
20260904214316 26 246 14.5 27.4 0.00 0.00 0.00 53
20260904214113 26 272 17.7 25.7 0.00 0.00 0.00 53
20260904213912 26 250 16.1 25.7 0.00 0.00 0.00 53
20260904213710 26 260 17.7 27.4 0.00 0.00 0.00 52
20260904213306 26 241 12.9 27.4 0.00 0.00 0.00 52
20260904213104 26 247 17.7 25.7 0.00 0.00 0.00 51
20260904212902 26 254 14.5 25.7 0.00 0.00 0.00 51
20260904212701 26 240 14.5 24.1 0.00 0.00 0.00 51
20260904212458 26 262 16.1 24.1 0.00 0.00 0.00 49
20260904212257 27 272 4.8 24.1 0.00 0.00 0.00 49
20260904211852 27 274 11.3 25.7 0.00 0.00 0.00 50
20260904211651 27 262 22.5 20.9 0.00 0.00 0.00 49
20260904211449 27 279 11.3 20.9 0.00 0.00 0.00 49
20260904211247 27 261 25.7 20.9 0.00 0.00 0.00 48
20260904211045 27 268 9.7 27.4 0.00 0.00 0.00 47
20260904210843 27 157 1.6 27.4 0.00 0.00 0.00 48
20260904210237 27 271 17.7 25.7 0.00 0.00 0.00 48
20260904210035 27 234 16.1 25.7 0.00 0.00 0.00 46
20260904205834 27 268 11.3 25.7 0.00 0.00 0.00 46
20260904205429 27 262 11.3 25.7 0.00 0.00 0.00 45
20260904205227 27 271 6.4 27.4 0.00 0.00 0.00 45
20260904205025 27 247 9.7 27.4 0.00 0.00 0.00 46
20260904204824 27 271 14.5 27.4 0.00 0.00 0.00 44
20260904204622 27 254 11.3 24.1 0.00 0.00 0.00 45
20260904204420 27 272 9.7 24.1 0.00 0.00 0.00 45
20260904204217 27 286 9.7 19.3 0.00 0.00 0.00 45
20260904204016 27 244 3.2 19.3 0.00 0.00 0.00 45
20260904203814 27 279 9.7 19.3 0.00 0.00 0.00 44
20260904203612 27 268 12.9 22.5 0.00 0.00 0.00 45
20260904203410 27 300 11.3 22.5 0.00 0.00 0.00 44
20260904203208 27 261 16.1 22.5 0.00 0.00 0.00 43
20260904202804 27 261 16.1 22.5 0.00 0.00 0.00 41
20260904202602 27 285 3.2 20.9 0.00 0.00 0.00 43
20260904202400 27 272 16.1 20.9 0.00 0.00 0.00 43
20260904202158 27 277 14.5 24.1 0.00 0.00 0.00 43
20260904201956 27 277 11.3 24.1 0.00 0.00 0.00 43
20260904201754 27 240 11.3 24.1 0.00 0.00 0.00 43
20260904201553 26 271 16.1 20.9 0.00 0.00 0.00 44
20260904201350 27 289 6.4 20.9 0.00 0.00 0.00 44
20260904201148 26 291 8.0 20.9 0.00 0.00 0.00 44
20260904200946 27 277 14.5 20.9 0.00 0.00 0.00 44
20260904200745 27 285 11.3 20.9 0.00 0.00 0.00 43
20260904200542 27 278 12.9 20.9 0.00 0.00 0.00 43
20260904200339 27 251 11.3 20.9 0.00 0.00 0.00 42
20260904200137 27 291 6.4 14.5 0.00 0.00 0.00 42
20260904195531 27 281 8.0 16.1 0.00 0.00 0.00 40
20260904195329 28 258 8.0 16.1 0.00 0.00 0.00 40
20260904195127 28 320 1.6 8.0 0.00 0.00 0.00 39
20260904194927 28 146 0.0 8.0 0.00 0.00 0.00 39
20260904194725 27 52 0.0 9.7 0.00 0.00 0.00 41
20260904194521 27 171 0.0 9.7 0.00 0.00 0.00 40
20260904194321 27 260 1.6 9.7 0.00 0.00 0.00 39
20260904194119 27 213 4.8 12.9 0.00 0.00 0.00 40
20260904193916 27 156 1.6 12.9 0.00 0.00 0.00 40
20260904193716 27 226 4.8 11.3 0.00 0.00 0.00 41
20260904193513 27 174 1.6 11.3 0.00 0.00 0.00 41
20260904193110 27 205 3.2 8.0 0.00 0.00 0.00 41
20260904192905 27 309 0.0 8.0 0.00 0.00 0.00 41
20260904192705 27 275 6.4 9.7 0.00 0.00 0.00 40
20260904192504 27 306 0.0 9.7 0.00 0.00 0.00 39
20260904192300 27 285 6.4 9.7 0.00 0.00 0.00 39
20260904192058 27 106 0.0 6.4 0.00 0.00 0.00 40
20260904191856 27 284 0.0 6.4 0.00 0.00 0.00 40
20260904191654 27 284 0.0 11.3 0.00 0.00 0.00 41
20260904191453 27 119 0.0 11.3 0.00 0.00 0.00 41
20260904191252 27 143 6.4 11.3 0.00 0.00 0.00 40
20260904191049 27 161 4.8 9.7 0.00 0.00 0.00 40
20260904190847 27 199 8.0 9.7 0.00 0.00 0.00 39
20260904190646 27 156 3.2 4.8 0.00 0.00 0.00 41
20260904190240 27 278 0.0 6.4 0.00 0.00 0.00 43
20260904190040 26 278 0.0 6.4 0.00 0.00 0.00 44
20260904185838 26 59 0.0 6.4 0.00 0.00 0.00 45
20260904185634 26 257 1.6 8.0 0.00 0.00 0.00 46
20260904185432 26 250 0.0 8.0 0.00 0.00 0.00 47
20260904185230 25 195 0.0 12.9 0.00 0.00 0.00 47
20260904185028 25 324 0.0 12.9 0.00 0.00 0.00 48
20260904184828 25 305 3.2 12.9 0.00 0.00 0.00 48
20260904184624 25 261 8.0 8.0 0.00 0.00 0.00 48
20260904184422 25 285 3.2 8.0 0.00 0.00 0.00 49
20260904184222 25 295 1.6 12.9 0.00 0.00 0.00 49
20260904184020 25 257 3.2 12.9 0.00 0.00 0.00 50
20260904183816 25 257 3.2 12.9 0.00 0.00 0.00 49
20260904183614 25 288 6.4 11.3 0.00 0.00 0.00 49
20260904183412 25 316 8.0 11.3 0.00 0.00 0.00 49
20260904183210 25 315 1.6 17.7 0.00 0.00 0.00 49
20260904183010 25 232 3.2 17.7 0.00 0.00 0.00 49
20260904182806 25 233 6.4 17.7 0.00 0.00 0.00 50
20260904182604 25 275 12.9 12.9 0.00 0.00 0.00 52
20260904182403 24 292 0.0 12.9 0.00 0.00 0.00 52
20260904182203 24 324 0.0 11.3 0.00 0.00 0.00 52
20260904182000 24 317 8.0 11.3 0.00 0.00 0.00 52
20260904181759 24 285 8.0 11.3 0.00 0.00 0.00 51
20260904181555 24 320 0.0 12.9 0.00 0.00 0.00 52
20260904181354 24 277 1.6 12.9 0.00 0.00 0.00 52
20260904181151 24 264 6.4 16.1 0.00 0.00 0.00 53
20260904180949 23 286 4.8 16.1 0.00 0.00 0.00 53
20260904180747 23 262 0.0 16.1 0.00 0.00 0.00 54
20260904180545 23 309 4.8 11.3 0.00 0.00 0.00 54
20260904180343 23 277 14.5 11.3 0.00 0.00 0.00 53
20260904180142 23 279 3.2 14.5 0.00 0.00 0.00 54
20260904175939 23 282 8.0 14.5 0.00 0.00 0.00 54
20260904175737 23 268 8.0 12.9 0.00 0.00 0.00 54
20260904175537 24 260 11.3 12.9 0.00 0.00 0.00 54